ICO G1

Last updated on Wed Sep 17 2025 00:02:46 GMT+0000 (Coordinated Universal Time)

1 32763U 08016A 25259.39003233 -.00000188 00000+0 00000+0 0 9998 2 32763 5.4785 36.7096 0002215 129.5421 236.9169 1.00272485 63809
UTC large
Height (km)
Speed (km/s)
/
Latitude / Longitude
Inclination (degrees)
Orbital Period (minutes)
Azimuth
Elevation
Range (km)
Doppler Factor

Next 0 passes for location: London (51.5072 / 0.1276)

Sorry there are no passes over London.